#timestamp,LO_Frequency,Hit,StdDev 
1613314815.9,286046997.9,N
1613314835.7,286046995.0,N
1613314855.6,286046989.4,N
1613314875.4,286046986.1,N
1613314895.2,286046985.8,N
1613314915.1,286046991.1,N
1613314916.0,286046991.1,N
1613314935.8,286046991.0,N
1613314955.7,286046991.2,N
1613314975.5,286046989.2,N
1613314995.3,286046989.3,N
1613315015.2,286046990.3,N
1613315035.0,286046988.8,N
1613315035.9,286046988.8,N
1613315055.7,286046985.0,N
1613315075.6,286046986.7,N
1613315095.4,286046985.6,N
1613315115.3,286046985.5,N
1613315135.1,286046988.2,N
1613315155.8,286046990.4,N
1613315175.7,286046990.2,N
1613315195.5,286046992.3,N
1613315215.4,286046987.3,Y
1613315235.2,286046998.9,P
1613315255.0,286046998.3,N
1613315255.9,286046998.3,N
1613315275.8,286046999.4,N
1613315295.6,286046996.6,N
1613315315.4,286046997.4,N
1613315335.3,286046993.7,N
1613315355.1,286046997.5,N
1613315375.9,286046990.3,Y
1613315395.7,286046988.7,P
1613315415.5,286046983.2,P
1613315435.4,286046984.3,N
1613315455.2,286046978.7,Y
1613315475.0,286046982.5,P
1613315476.0,286046982.5,P
1613315495.8,286046983.3,P
1613315515.6,286046984.7,Y
1613315535.5,286047004.3,P
1613315555.3,286047000.9,N
1613315575.1,286046997.3,N
1613315595.9,286046996.5,N
1613315615.7,286047005.8,N
1613315635.6,286047006.1,N
1613315655.4,286047009.4,N
1613315675.2,286047008.4,N
1613315695.1,286047010.8,N
1613315696.0,286047010.8,N
1613315715.8,286047011.3,N
1613315735.6,286047013.5,N
1613315755.5,286047014.3,N
1613315775.3,286047015.7,N
1613315795.2,286047012.9,N
1613315815.9,286047015.9,N
1613315835.7,286047019.6,N
1613315855.6,286047020.6,N
1613315875.4,286047024.1,N
1613315895.2,286047019.3,N
1613315915.1,286047023.5,N
1613315916.0,286047023.5,N
1613315935.8,286047020.5,N
1613315955.7,286047019.9,N
1613315975.5,286047020.4,N
1613315995.3,286047023.1,N
1613316015.2,286047018.4,N
1613316035.0,286047018.3,N
1613316035.9,286047018.3,N
1613316055.7,286047018.7,N
1613316075.6,286047018.5,N
1613316095.4,286047017.8,N
1613316115.3,286047023.3,Y
1613316135.1,286047008.3,P
1613316155.8,286047006.3,N
1613316175.7,286047001.7,N
1613316195.5,286047006.4,N
1613316215.3,286047005.0,N
1613316235.2,286047005.2,N
1613316255.0,286047004.3,N
1613316255.9,286047004.3,N
1613316275.8,286047002.3,N
1613316295.6,286047006.3,N
1613316315.4,286047007.6,N
1613316335.3,286047009.6,N
1613316355.1,286047009.5,N
1613316375.9,286047010.9,Y
1613316395.7,286047003.8,P
1613316415.5,286047001.6,N
1613316435.4,286047002.7,N
1613316455.2,286046995.7,N
1613316475.0,286046991.0,N
1613316475.9,286046991.0,N
1613316495.8,286046989.0,N
1613316515.6,286046988.8,N
1613316535.5,286046986.3,N
1613316555.3,286046987.9,N
1613316575.1,286046989.7,N
1613316595.9,286046990.2,N
1613316615.7,286046990.5,N
1613316635.5,286046995.6,N
1613316655.4,286046993.7,N
1613316675.2,286046996.5,N
1613316695.1,286046998.8,N
1613316696.0,286046998.8,N
1613316715.8,286046999.0,N
1613316735.6,286046998.0,N
1613316755.5,286047000.5,N
1613316775.3,286047001.0,N
1613316795.1,286046997.2,N
1613316815.9,286046995.6,N
1613316835.7,286046995.5,N
1613316855.6,286046995.5,N
1613316875.4,286046995.0,N
1613316895.2,286046993.3,N
1613316915.1,286046994.0,N
1613316916.0,286046994.0,N
1613316935.8,286046990.1,N
1613316955.6,286046991.1,N
1613316975.5,286046991.3,N
1613316995.3,286046987.3,Y
1613317015.2,286046994.4,P
1613317035.9,286046995.2,P
1613317055.7,286046995.5,P
1613317075.6,286046992.4,Y
1613317095.4,286046995.1,P
1613317115.2,286046997.9,P
1613317135.1,286046996.0,N
1613317136.0,286046996.0,Y
1613317155.8,286046995.0,P
1613317175.7,286046994.3,P
1613317195.5,286046996.9,P
1613317215.3,286046993.8,Y
1613317235.2,286047000.0,P
1613317255.0,286047002.6,N
1613317255.9,286047002.6,N
1613317275.8,286047002.4,N
1613317295.6,286046998.9,N
1613317315.4,286046996.7,N
1613317335.3,286046993.5,N
1613317355.1,286046992.5,N
1613317375.9,286046993.0,N
1613317395.7,286046992.9,N
1613317415.5,286046997.5,N
1613317435.4,286046995.6,N
1613317455.2,286046996.4,N
1613317475.1,286046995.5,N
1613317476.0,286046995.5,N
1613317495.8,286046992.3,N
1613317515.6,286046990.2,N
1613317535.5,286046989.2,N
1613317555.3,286046989.9,N
1613317575.2,286046987.0,Y
1613317595.9,286046993.0,P
1613317615.7,286046995.7,P
1613317635.6,286046993.2,P
1613317655.4,286046994.2,Y
1613317675.2,286046998.9,P
1613317695.1,286046996.5,N
1613317696.0,286046996.5,N
1613317715.8,286046996.1,N
1613317735.7,286046995.2,Y
1613317755.5,286047004.0,P
1613317775.3,286047001.4,N
1613317795.2,286047004.1,N
1613317815.0,286046998.9,N
1613317815.9,286046998.9,N
1613317835.7,286047004.0,N
1613317855.6,286047001.8,N
1613317875.4,286046999.8,N
1613317895.3,286047003.7,N
1613317915.1,286047001.3,N
1613317916.0,286047001.3,N
1613317935.8,286047003.6,N
1613317955.7,286047003.6,N
1613317975.5,286047000.4,N
1613317995.4,286046998.3,N
1613318015.2,286046999.8,N
1613318035.0,286047000.0,N
1613318035.9,286047000.0,N
1613318055.8,286047000.3,N
1613318075.6,286047002.3,N
1613318095.4,286047001.4,N
1613318115.3,286047001.4,N
1613318135.1,286047006.0,N
1613318155.9,286047007.5,Y
1613318175.7,286047003.3,P
1613318195.5,286047004.3,P
1613318215.4,286047004.1,P
1613318235.2,286047002.8,N
1613318255.1,286047001.7,N
1613318256.0,286047001.7,N
1613318275.8,286047001.6,N
1613318295.6,286047001.8,N
1613318315.5,286047002.1,N
1613318335.3,286047002.0,N
1613318355.1,286047003.9,Y
1613318375.9,286046999.9,P
1613318395.7,286046999.9,N
